COSMOS 397 DEB *, 5720

Orbit data source: Space-Track

COSMOS 397 DEB *, 5720 is space debris in LEO originally from a launch on Thu, 25 Feb 1971 UTC launched from the Tyuratam Missile And Space Complex (TTMTR). Debris objects in space refer to the collection of defunct objects orbiting the Earth. Examples of debris include non-operational satellites, rocket bodies, and fragments generated from explosions, collisions, or faulty payload assembly.

Loading next visibility...
Identifier
5720, 1971-015CB
Orbit
LEO
Country
Flag of CISCIS
Related business
Manufacturer
Unknown
Mission
Spacecraft
Bus & Motor
Unknown
Mass
Unknown
Launch date (UTC)
1971-02-25 (55 years ago)
Launch vehicle
Unknown
Launch site
Tyuratam Missile And Space Complex (TTMTR)
Object type
Payload
Rocket body
Debris
Shape & HBR
Unknown shape, 0.1 m
Radar Cross Section
Small (<0.1 m²)

Expand to show TLE details & history
Last TLE update: 1 day ago

TLE from 1 day ago
0 COSMOS 397 DEB *
1 05720U 71015CB  25349.42090687  .00000231  00000-0  18029-3 0  9996
2 05720  66.7279 357.6736 0096645  96.3661 264.8442 14.06514624735593
Epoch: 2025-12-15T10:06Z
TLE epoch observation values (Epoch: 2025-12-15T10:06:06.353Z)
Latitude
-0.00005°
Longitude
121.82739°
Altitude
880.377 km
Speed
7.409 km/s
True Right ascension
23h 50m 41s
True Declination
0° 00' 00"
Sunlit
Object was in daylight at epoch
Visualization orbit readout
Latitude
Unknown
Longitude
Unknown
Altitude
Unknown
Speed
Unknown
Apparent Right ascension
Unknown
Apparent Declination
Unknown
Sunlit
N/A
Visualization observer readout
Local Sidereal Time
08:35:22
Azimuth
Unknown
Elevation
Unknown
Doppler factor
Unknown
Orbital elements
Apogee altitude
939.76 km
Perigee altitude
799.666 km
Semi-major axis
7,247.85 km
Eccentricity
0.00966
Inclination
66.7279°
RAAN
357.6736°
Arg. of periapsis
96.3661°
True anomaly
263.74247°
Mean anomaly
264.8442°
Eccentric anomaly
264.29321°
Mean motion
3.51746 °/min
Orbital period
102.35 mins
BSTAR
0.00018029
Loading maneuver chart data...
Computing Atmospheric mass density...
Loading historical data...
Loading historical data...
Loading historical data...
Loading historical data...
Loading historical data...
Loading historical data...
Loading historical data...

Documentation

Showing up to 5 results
|